This is the latest recevied weather packets stored in our database for station/object XE2G-31. If no packets are shown the sender has not sent any weather packets the latest 10 day(s).
| Time | Temp. | Humidity | Pressure | Rain* | Wind** | Luminosity | Snow |
|---|---|---|---|---|---|---|---|
| 1777558917 | 26.11° C | 33% | 868 hPa | - | - | - | - |
| 1777557970 | 25.56° C | 33% | 868 hPa | - | - | - | - |
| 1777557023 | 25.56° C | 44% | 868 hPa | - | - | - | - |
| 1777556077 | 23.89° C | 48% | 868 hPa | - | - | - | - |
| 1777555130 | 23.89° C | 54% | 868 hPa | - | - | - | - |
| 1777554183 | 23.89° C | 44% | 868 hPa | - | - | - | - |
| 1777553236 | 25° C | 37% | 867 hPa | - | - | - | - |
| 1777552289 | 23.89° C | 38% | 867 hPa | - | - | - | - |
| 1777551342 | 23.89° C | 34% | 867 hPa | - | - | - | - |
| 1777550396 | 23.89° C | 39% | 867 hPa | - | - | - | - |
| 1777549449 | 23.89° C | 38% | 867 hPa | - | - | - | - |
| 1777548502 | 23.89° C | 48% | 867 hPa | - | - | - | - |
| 1777547555 | 23.33° C | 45% | 868 hPa | - | - | - | - |
| 1777546608 | 22.78° C | 60% | 868 hPa | - | - | - | - |
| 1777545661 | 22.78° C | 68% | 868 hPa | - | - | - | - |
| 1777544715 | 22.78° C | 65% | 868 hPa | - | - | - | - |
| 1777543768 | 22.22° C | 68% | 868 hPa | - | - | - | - |
| 1777542821 | 22.22° C | 70% | 868 hPa | - | - | - | - |
| 1777541874 | 22.22° C | 72% | 868 hPa | - | - | - | - |
| 1777540927 | 22.78° C | 72% | 868 hPa | - | - | - | - |
| 1777539980 | 22.78° C | 72% | 868 hPa | - | - | - | - |
| 1777539034 | 22.78° C | 70% | 868 hPa | - | - | - | - |
| 1777538087 | 23.33° C | 65% | 868 hPa | - | - | - | - |
| 1777537140 | 23.33° C | 69% | 868 hPa | - | - | - | - |
| 1777536193 | 23.89° C | 68% | 868 hPa | - | - | - | - |
* Rain since midnight (hover to see other rain measurements)
** Current wind speed in m/s (hover to see current wind gust speed)